Вернуться в каталог

STARLINK-36973

АктивенСвязьVLEO
NORAD 68078·PAYLOAD·🇺🇸 United States

Запущен Mar 4, 2026 с Vandenberg Space Force Base

Loading…

Ближайшие Пролёты (ближайшие 24 часа)

TLE

СвежийSource: CelesTrak SupGP

Эпоха: Sep 15, 2026, 04:22 UTC

1 68078C 26042K   26258.18243056  .00070749  00000+0  20903-2 0  2585
2 68078  53.1603  14.4257 0001210  94.2892 327.8125 15.34355203    10

Отслеживайте STARLINK-36973 в реальном времени с AllMySat

Download on the App Store